Location: Voyageurs National Park
(48.5020°N, 92.9292°W)
Time: 17:32:38
(UTC-05:00)

Daily predictions for brighter satellites

Satellite Brightness Start Highest point End
(mag) Time Altitude Azimuth Time Altitude Azimuth Time Altitude Azimuth
Nadezhda 3 Rocket 4.1 20:31:40 10° N 20:37:58 68° ENE 20:44:16 10° SSE
Cosmos 1346 Rocket 3.9 20:36:21 10° SSW 20:40:19 51° WNW 20:44:21 10° N
Cosmos 2360 Rocket 2.7 20:38:34 10° SW 20:44:10 67° WNW 20:49:48 10° NNE
Cosmos 1633 Rocket 3.1 20:41:20 10° N 20:45:41 66° E 20:49:59 10° SSE
Meteor 2-15 Rocket 4.5 20:44:32 10° N 20:50:44 83° E 20:56:52 10° S
CZ-2D R/B 4.5 20:49:54 10° S 20:53:32 44° W 20:57:13 10° NNW
NOSS 2-1 (E) 3.4 20:50:08 10° SSW 20:53:42 53° SE 20:57:50 10° NE
Cosmos 2333 Rocket 2.6 20:48:28 10° S 20:53:45 42° ESE 20:59:04 10° NE
NOSS 3-4 (A) 4.4 20:49:57 10° NW 20:56:29 45° NE 21:03:30 10° ESE
NOSS 3-4 (C) 4.4 20:50:03 10° NW 20:56:34 45° NE 21:03:35 10° ESE
Meteor 2-2 Rocket 4.3 20:51:27 10° S 20:57:15 70° E 21:03:13 10° NNE
Cosmos 1844 Rocket 3.4 20:52:44 10° NW 20:58:18 56° WSW 21:03:49 10° S
Cosmos 1408 3.4 20:54:59 10° N 20:58:20 33° ENE 21:01:41 10° SE
COSMOS 2428 2.7 20:53:11 10° SSW 20:58:54 75° ESE 21:04:37 10° NNE
Cosmos 1455 2.4 20:55:47 10° S 20:59:30 49° E 21:03:15 10° NNE
Cosmos 2228 Rocket 3.8 20:55:48 10° SSE 20:59:44 33° E 21:03:43 10° NNE
Cosmos 1515 Rocket 4.3 20:55:56 10° SSE 20:59:57 34° E 21:04:00 10° NNE
Cosmos 2221 4.2 20:56:02 10° SW 21:00:01 38° WNW 21:04:02 10° N
Cosmos 2333 4.2 20:55:40 10° SSW 21:01:18 80° ESE 21:06:57 10° NNE
ERS-2 3.3 20:58:17 10° S 21:01:48 45° W 21:05:22 10° NNW
Cosmos 1844 4.1 20:56:17 10° NNW 21:01:56 67° WSW 21:07:37 10° SSE
BREEZE-M DEB (TANK) 4.5 20:57:06 10° SW 21:02:11 60° SSE 21:23:31 10° ENE
Cosmos 1892 3.0 20:58:32 10° NNW 21:02:26 74° W 21:06:18 10° S
Cosmos 44 4.1 21:01:34 10° WSW 21:06:01 53° NW 21:10:47 10° NNE
NOSS 3-3 (A) 4.1 21:00:58 10° SSW 21:06:53 56° ESE 21:13:24 10° NE
NOSS 3-3 (C) 4.1 21:01:05 10° SSW 21:06:59 55° ESE 21:13:29 10° NE
H-2A R/B 2.9 21:07:50 12° ESE 21:11:50 32° ENE 21:16:12 10° N
Cosmos 2219 Rocket 2.2 21:06:40 10° SSW 21:12:16 68° ESE 21:17:53 10° NNE
Cosmos 2237 Rocket 2.7 21:07:52 10° S 21:12:56 36° ESE 21:18:02 10° NE
ERS-1 Rocket 3.9 21:10:13 13° ESE 21:14:02 31° ENE 21:18:26 10° N
Genesis I 3.5 21:12:48 10° NW 21:16:53 69° SW 21:20:28 13° SSE
Cosmos 2154 Rocket 4.2 21:11:53 10° SSW 21:18:09 76° W 21:24:24 10° N
Cosmos 2278 Rocket 2.2 21:12:39 10° NNW 21:18:22 79° ENE 21:23:35 12° SSE
YAOGAN 6 3.8 21:15:13 10° S 21:18:39 42° W 21:22:09 10° NNW
Cosmos 1328 Rocket 3.5 21:15:26 10° S 21:19:50 77° E 21:24:18 10° NNE
SAR-Lupe-3 4.5 21:17:12 10° NNE 21:20:49 76° ESE 21:24:23 10° S
Resurs 01 Rocket 2.3 21:18:36 10° S 21:22:57 55° W 21:27:20 10° NNW
ATLAS 5 CENTAUR R/B 4.1 21:20:33 10° NNW 21:24:42 21° NNE 21:29:12 10° ENE
Cosmos 1727 Rocket 4.4 21:20:50 10° N 21:26:47 46° ENE 21:31:34 16° SE
NOAA 11 4.3 21:21:50 10° SSE 21:27:20 82° WSW 21:32:53 10° NNW
SL-08 RB Rocket 4.3 21:24:45 17° SE 21:27:48 39° ENE 21:31:58 10° N
Cosmos 1470 Rocket 3.6 21:23:26 10° N 21:27:51 87° W 21:32:17 10° S
Cosmos 44 Rocket 4.3 21:24:41 10° WSW 21:29:22 50° NW 21:34:13 10° NNE
ATLAS CENTAUR R/B 1.1 21:30:14 10° SSW 21:33:51 58° SE 21:37:41 10° NE
Cosmos 2341 Rocket 4.2 21:33:39 10° SSW 21:40:01 77° W 21:46:23 10° N
Cosmos 2056 Rocket 4.2 21:35:44 11° SSE 21:40:26 35° ESE 21:45:18 10° NE
Cosmos 2098 Rocket 3.2 21:39:29 13° SSE 21:43:24 48° E 21:47:02 10° NNE
Cosmos 1825 2.2 21:39:49 10° N 21:43:38 83° W 21:46:31 17° S
Aureole 2 3.9 21:41:34 10° SSW 21:44:34 88° WNW 21:47:32 10° NNE
Cosmos 2218 Rocket 4.0 21:39:58 10° S 21:46:17 71° E 21:52:40 10° NNE
Cosmos 405 3.3 21:43:24 10° N 21:46:50 48° ENE 21:48:07 31° SE
USA 234 4.0 21:43:18 10° E 21:49:32 49° NNE 21:55:46 10° WNW
NOSS 0 Rocket 3.9 21:47:37 10° SSW 21:53:49 83° ESE 22:00:04 10° NNE
BREEZE-M DEB (TANK) 4.1 21:52:04 10° W 21:54:45 18° SW 21:55:38 16° SSW
Cosmos 1933 Rocket 4.2 21:52:13 10° NNW 21:56:31 53° W 22:00:35 11° S
Cosmos 1624 Rocket 4.2 21:52:46 11° S 21:57:31 49° ESE 22:02:32 10° NNE
Cosmos 1190 Rocket 4.0 21:52:29 10° NNW 21:57:49 75° ENE 22:00:47 27° SSE
Cosmos 2366 rocket 3.9 21:52:56 10° S 21:59:07 79° E 22:05:27 10° NNE
SL-16 R/B 2.7 21:59:33 23° SSE 22:02:21 37° ESE 22:07:30 10° NE
Cosmos 2344 4.3 21:58:40 20° SSE 22:02:29 30° ESE 22:09:18 10° NE
BREEZE-M DEB (TANK) 3.1 22:01:38 10° W 22:04:21 29° SW 22:04:23 29° SSW
Cosmos 1140 Rocket 3.9 21:59:33 10° NNW 22:04:35 46° ENE 22:06:46 29° ESE
GEOS 3 Rocket 4.0 21:59:50 10° NE 22:04:52 40° ESE 22:09:48 10° S
Cosmos 1869 3.3 22:02:49 15° S 22:06:09 84° W 22:10:12 10° N
Terra 3.0 22:05:06 24° E 22:06:36 29° ENE 22:10:40 10° N
Cosmos 1151 Rocket 3.8 22:03:56 10° SSW 22:08:04 51° WNW 22:12:16 10° N
SL-8 Rocket 4.3 22:02:34 10° SSW 22:08:53 71° WNW 22:15:10 10° N
Cosmos 1943 Rocket 4.0 22:06:16 10° N 22:10:14 19° NE 22:13:21 13° E
CZ-4C R/B 4.2 22:13:19 12° ENE 22:13:19 12° ENE 22:14:00 10° ENE
ARGOS 3.4 22:07:10 18° S 22:11:09 69° WSW 22:16:31 10° NNW
Cosmos 1954 Rocket 4.3 22:06:02 10° NNW 22:11:10 53° ENE 22:13:15 33° ESE
Cosmos 1707 Rocket 3.9 22:13:35 38° ESE 22:14:16 42° E 22:18:21 10° NNE
CZ-2C R/B 4.3 22:14:25 21° E 22:15:40 23° ENE 22:19:24 10° N
MetOp-B 4.3 22:12:10 21° S 22:15:48 71° WSW 22:21:11 10° NNW
ATLAS 2AS CENTAUR R/B 4.0 22:09:51 10° NW 22:16:54 37° WSW 22:22:42 13° S
Lacrosse 5 3.0 22:13:47 10° NW 22:18:32 38° NNE 22:21:58 17° ENE
Cosmos 1869 Rocket 3.4 22:14:22 10° N 22:18:47 86° E 22:20:24 39° SSE
Helios 1B rocket 3.0 22:15:57 10° NNE 22:19:46 37° E 22:19:46 37° E
SPOT 5 2.7 22:19:19 39° SE 22:20:55 70° ENE 22:25:21 10° N
Cosmos 1980 4.2 22:23:30 10° SW 22:29:08 62° WNW 22:34:48 10° NNE
Cosmos 2297 3.8 22:23:57 10° NNW 22:29:37 75° WSW 22:32:07 35° SSE
DMSP B5D2-2 4.1 22:24:38 10° NNE 22:29:51 60° ESE 22:31:42 38° SSE
Cosmos 1733 Rocket 3.8 22:26:59 10° N 22:31:05 37° ENE 22:31:26 36° E
CARTOSAT-1 3.9 22:31:42 44° E 22:32:19 48° ENE 22:36:29 10° N
Meteor 2-10 Rocket 3.9 22:27:11 11° SSW 22:32:38 75° WNW 22:38:30 10° N
Meteor 1-29 4.4 22:31:28 10° NNE 22:33:21 26° NE 22:33:21 26° NE
Cosmos 1441 Rocket 3.0 22:34:51 67° S 22:35:19 89° ESE 22:39:06 10° NNE
Helios 1A 3.2 22:35:50 43° SSW 22:37:04 66° WSW 22:41:16 10° NNW
Cosmos 2333 Rocket 3.7 22:32:50 10° WSW 22:38:06 38° NW 22:43:21 10° NNE
Cosmos 2369 Rocket 3.2 22:33:00 10° NNW 22:38:14 35° NE 22:40:15 27° E
SPOT 1/Viking Rocket 3.5 22:40:48 41° S 22:42:43 82° WSW 22:47:59 10° NNW
Cosmos 1420 Rocket 4.4 22:45:16 42° ESE 22:45:16 42° ESE 22:50:14 10° NE
RESURS DK-1 3.9 22:43:42 10° N 22:47:08 24° NE 22:47:43 23° ENE
NOSS 3-4 (A) 4.1 22:40:53 10° NW 22:47:45 61° WSW 22:51:01 34° S
NOSS 3-4 (C) 4.1 22:40:59 10° NW 22:47:51 61° SW 22:51:06 34° S
Cosmos 1862 4.2 22:44:50 10° NNW 22:48:43 45° W 22:49:46 36° SW
Cosmos 407 Rocket 4.3 22:44:30 10° NW 22:49:21 43° WSW 22:51:21 29° SSW
Cosmos 2242 Rocket 4.3 22:50:15 37° ENE 22:50:15 37° ENE 22:53:46 10° NNE
SL-8 R/B 3.6 22:46:12 10° WSW 22:50:54 63° SSE 22:50:54 63° SSE
H-2A R/B 3.1 22:48:28 22° SSW 22:51:11 39° W 22:55:51 10° NNW
Meteor 1-26 Rocket 4.4 22:51:00 46° ESE 22:51:36 48° E 22:56:56 10° NNE
ERS-1 Rocket 4.0 22:50:13 24° SSW 22:52:42 40° W 22:57:27 10° NNW
Cosmos 614 Rocket 4.0 22:48:17 10° NNW 22:53:32 74° WSW 22:54:50 50° S
Cosmos 1934 Rocket 4.0 22:54:46 47° SE 22:56:05 56° E 23:01:59 10° NNE
SL-19 R/B 4.4 22:54:32 42° S 22:56:28 72° WSW 23:02:06 10° NNW
USA 267 3.2 22:50:07 10° ENE 22:56:34 57° SE 23:02:58 10° SW
Cosmos 2219 Rocket 4.3 22:52:00 10° WSW 22:56:44 26° NW 23:01:28 10° NNE
Cosmos 2237 Rocket 3.3 22:51:34 10° SW 22:56:55 43° NW 23:02:18 10° NNE
Cosmos 1437 Rocket 2.9 22:54:06 10° N 22:57:36 66° NE 22:57:36 66° NE
CZ-2C R/B 3.7 22:54:08 10° NE 22:58:10 28° E 22:58:10 28° E
Cosmos 2278 Rocket 4.3 22:58:00 10° WNW 23:01:46 18° W 23:05:27 10° SW
Cosmos 405 Rocket 3.6 23:03:14 41° WSW 23:04:00 47° WNW 23:07:50 10° N
IGS 5A 3.4 23:04:57 80° WSW 23:05:01 80° WSW 23:09:14 10° NNW
ATLAS 5 CENTAUR R/B 2.8 23:05:01 10° NW 23:10:36 52° NE 23:12:39 37° E
Nimbus 7 Rocket 4.3 23:06:16 10° NNE 23:12:10 65° ESE 23:13:05 57° SSE
ATLAS CENTAUR R/B 3.7 23:10:08 10° W 23:13:10 22° NW 23:16:20 10° NNE
Meteor 1-20 Rocket 4.0 23:08:38 10° N 23:14:07 71° ENE 23:14:47 63° ESE
Cosmos 1821 Rocket 4.1 23:17:40 37° SSW 23:20:20 75° W 23:26:40 10° N
Cosmos 1452 Rocket 3.4 23:22:16 60° SSW 23:23:14 84° WNW 23:28:32 10° NNE
Cosmos 1908 Rocket 4.1 23:19:06 10° N 23:22:54 50° NE 23:22:54 50° NE
H-2A R/B 3.9 23:28:48 22° ENE 23:28:48 22° ENE 23:32:14 10° N
Cosmos 1862 Rocket 3.8 23:30:50 68° N 23:30:50 68° N 23:34:42 10° N
USA 234 3.1 23:30:25 52° SE 23:32:16 89° SSW 23:38:51 10° NW
Cosmos 2123 Rocket 4.0 23:26:55 10° NNW 23:33:15 74° W 23:34:41 54° SSW
ALOS 2 4.2 23:37:31 26° NE 23:37:31 26° NE 23:40:44 10° N
Cosmos 1850 Rocket 4.0 23:33:44 10° NNW 23:38:52 65° WSW 23:39:00 65° WSW
Cosmos 1633 4.1 23:38:34 10° NNW 23:40:51 34° NW 23:40:51 34° NW
GEOS 3 Rocket 4.4 23:37:46 10° NNE 23:43:00 51° NW 23:48:06 10° WSW
Terra 2.7 23:43:59 40° WSW 23:44:12 40° W 23:48:42 10° NNW
Cosmos 1741 Rocket 4.2 23:40:48 10° NNW 23:46:04 59° WSW 23:46:10 59° WSW
SL-16 R/B 3.3 23:41:17 11° WSW 23:46:24 43° NW 23:51:48 10° NNE
Spot 4 3.9 23:47:11 77° NNW 23:47:11 77° NNW 23:51:38 10° NNW
Meteor 1-4 Rocket 4.3 23:43:55 10° NNW 23:45:55 29° NW 23:45:55 29° NW
Cosmos 921 Rocket 3.9 23:50:24 46° NNE 23:50:24 46° NNE 23:53:28 10° NNE
Meteor 1-11 Rocket 4.1 23:45:21 10° N 23:50:51 49° ENE 23:50:58 49° ENE
SeaSat 1 3.3 23:52:13 39° ENE 23:52:36 39° NE 23:57:11 10° NNW
Helios 1B rocket 4.4 23:51:37 10° N 23:54:56 24° WNW 23:56:07 21° W
CZ-2C R/B 3.4 23:55:28 50° W 23:55:28 50° W 23:59:56 10° NNW
